This demonstration page uses our WeatherBlox Daily Observations layout. Learn more.

Left ArrowRight Arrow

34.74481, -87.66753

Hourly Observations for July 20, 2016

Temp ( °F °C ) Dew Point ( °F °C ) Humidity (%) Winds ( mph kmh ) Pressure ( in mb ) Visibility ( mi km ) Precip ( " mm )
12:53 am 00:53 Clear 76 24.4 72 22.2 88 88 E 3 6 30.16 1021 10 16 0.00 0.00
1:53 am 01:53 Clear 76 24.4 71 21.7 85 85 Calm 30.15 1021 10 16 0.00 0.00
2:53 am 02:53 Clear 75 23.9 71 21.7 88 88 Calm 30.14 1021 10 16 0.00 0.00
3:53 am 03:53 Clear 74 23.3 71 21.7 91 91 Calm 30.14 1021 10 16 0.00 0.00
4:53 am 04:53 Clear 73 22.8 70 21.1 90 90 Calm 30.15 1021 10 16 0.00 0.00
5:53 am 05:53 Sunny 73 22.8 70 21.1 90 90 Calm 30.17 1022 10 16 0.00 0.00
6:53 am 06:53 Sunny 75 23.9 71 21.7 88 88 Calm 30.19 1022 10 16 0.00 0.00
7:53 am 07:53 Sunny 79 26.1 73 22.8 82 82 Calm 30.20 1023 10 16 0.00 0.00
8:53 am 08:53 Sunny 83 28.3 74 23.3 74 74 Calm 30.19 1023 10 16 0.00 0.00
9:53 am 09:53 Sunny 88 31.1 72 22.2 59 59 E 6 9 30.20 1023 10 16 0.00 0.00
10:53 am 10:53 Sunny 90 32.2 72 22.2 56 56 Calm 30.20 1023 10 16 0.00 0.00
11:53 am 11:53 Sunny 92 33.3 70 21.1 49 49 VRB 3 6 30.19 1022 10 16 0.00 0.00
12:53 pm 12:53 Sunny 94 34.4 71 21.7 48 48 Calm 30.17 1022 10 16 0.00 0.00
1:53 pm 13:53 Sunny 95 35 71 21.7 46 46 N 3 6 30.15 1021 10 16 0.00 0.00
2:32 pm 14:32 Hazy 94 34.4 70 21.1 46 46 ENE 6 9 30.09 1019 1 2 0.00 0.00
2:35 pm 14:35 Hazy 94 34.4 70 21.1 46 46 ENE 5 7 30.09 1019 5 8 0.00 0.00
2:53 pm 14:53 Mostly Sunny 96 35.6 74 23.3 49 49 NW 3 6 30.12 1020 10 16 0.00 0.00
3:53 pm 15:53 Sunny 98 36.7 67 19.4 36 36 Calm 30.11 1020 10 16 0.00 0.00
4:53 pm 16:53 Partly Cloudy 96 35.6 70 21.1 43 43 VRB 3 6 30.10 1019 10 16 0.00 0.00
5:53 pm 17:53 Sunny 95 35 69 20.6 43 43 Calm 30.10 1019 10 16 0.00 0.00
6:53 pm 18:53 Sunny 87 30.6 72 22.2 61 61 Calm 30.10 1019 10 16 0.00 0.00
7:53 pm 19:53 Sunny 87 30.6 72 22.2 61 61 NNE 3 6 30.11 1020 10 16 0.00 0.00
8:53 pm 20:53 Mostly Clear 84 28.9 72 22.2 67 67 SW 5 7 30.11 1020 10 16 0.00 0.00
9:53 pm 21:53 Clear 83 28.3 72 22.2 70 70 Calm 30.13 1020 10 16 0.00 0.00
10:53 pm 22:53 Clear 81 27.2 73 22.8 77 77 Calm 30.13 1020 10 16 0.00 0.00
11:53 pm 23:53 Clear 78 25.6 73 22.8 85 85 Calm 30.12 1020 10 16 0.00 0.00

Powered by AerisWeather